Tracking 19717 objects as of 24-Jun-2019
HD Live streaming from Space Station
objects crossing your sky now

FENGYUN 1C DEB

Track FENGYUN 1C DEB now!
10-day predictions


NORAD ID: 30355
Int'l Code: 1999-025ABS
Perigee: 815.4 km
Apogee: 897.4 km
Inclination: 98.8 °
Period: 101.9 minutes
Semi major axis: 7227 km
RCS: 0.025 m2 (small)
Launch date: May 10, 1999
Source: People's Republic of China (PRC)
Launch site: Taiyaun Space Center, China (TSC)

Note: This is SATELLITE DEBRIS
aabbcc
Your satellite tracking list
Your tracking list is empty




NASA's NSSDC Master Catalog

Two Line Element Set (TLE):
1 30355U 99025ABS 19175.12770531  .00000204  00000-0  13111-3 0  9996
2 30355  98.7664 218.2274 0056682 228.3741 152.9027 14.12962412639396
Source of the keplerian elements: AFSPC